Location: Croagnes
(43.9363°N, 5.3265°E)
Time: 01:39:20
(UTC+00:00)

Meteor 1-16 Rocket - Visible Passes

Search period start: 27 September 2020 00:00
Search period end: 07 October 2020 00:00
Orbit: 791 x 907 km, 81.2° (Epoch: 26 September)

Date Brightness Start Highest point End Pass type
(mag) Time Alt. Az. Time Alt. Az. Time Alt. Az.
27 Sep 5.8 20:19:30 24° NNE 20:19:30 24° NNE 20:21:49 10° NNE visible
27 Sep 6.6 22:01:26 19° NW 22:01:26 19° NW 22:03:53 10° NNW visible
28 Sep 5.7 20:06:42 26° NNE 20:06:42 26° NNE 20:09:12 10° NNE visible
28 Sep 6.5 21:48:39 21° NW 21:48:39 21° NW 21:51:25 10° NNW visible
29 Sep 5.6 19:53:52 27° NE 19:53:52 27° NE 19:56:34 10° NNE visible
29 Sep 6.4 21:35:48 23° NW 21:35:48 23° NW 21:38:57 10° NNW visible
30 Sep 5.4 19:40:55 29° NE 19:40:55 29° NE 19:43:56 10° NNE visible
30 Sep 6.2 21:22:51 26° NW 21:22:51 26° NW 21:26:27 10° N visible
01 Oct 5.2 19:27:52 31° NE 19:27:52 31° NE 19:31:17 10° NNE visible
01 Oct 6.0 21:09:47 29° NW 21:09:47 29° NW 21:13:57 10° N visible
02 Oct 5.0 19:14:36 33° ENE 19:14:36 33° ENE 19:18:37 10° NNE visible
02 Oct 5.8 20:56:30 33° WNW 20:56:30 33° WNW 21:01:27 10° N visible
03 Oct 4.9 19:00:58 34° E 19:00:58 34° E 19:05:57 10° NNE visible
03 Oct 5.6 20:42:51 35° W 20:43:34 36° WNW 20:48:56 10° N visible
04 Oct 5.0 18:46:19 26° ESE 18:48:13 31° E 18:53:16 10° NNE visible
04 Oct 5.5 20:28:00 24° SW 20:30:58 39° WNW 20:36:24 10° N visible
05 Oct 5.1 18:30:44 10° SE 18:35:41 29° E 18:40:34 10° NNE visible
05 Oct 5.3 20:12:46 10° SW 20:18:21 43° WNW 20:23:52 10° N visible
06 Oct 6.8 05:08:08 10° NNE 05:12:25 22° ENE 05:16:35 10° ESE visible
06 Oct 5.2 18:18:23 10° SE 18:23:09 26° E 18:27:52 10° NNE visible
06 Oct 5.2 20:00:06 10° SSW 20:05:45 47° WNW 20:11:19 10° N visible
